TimeEST,TemperatureF,Dew PointF,Humidity,Sea Level PressureIn,VisibilityMPH,Wind Direction,Wind SpeedMPH,Gust SpeedMPH,PrecipitationIn,Events,Conditions,WindDirDegrees,DateUTC
12:53 AM,72.0,66.0,81,30.06,9.0,NNE,9.2,-,N/A,,Clear,20,2011-11-18 05:53:00
1:53 AM,71.1,66.9,87,30.06,9.0,NE,11.5,-,N/A,,Clear,40,2011-11-18 06:53:00
2:28 AM,71.6,66.2,83,30.05,9.0,NE,13.8,23.0,N/A,,Mostly Cloudy,40,2011-11-18 07:28:00
2:53 AM,71.1,66.9,87,30.05,8.0,NE,12.7,21.9,N/A,,Mostly Cloudy,40,2011-11-18 07:53:00
3:04 AM,69.8,66.2,88,30.05,9.0,NE,13.8,-,N/A,,Scattered Clouds,40,2011-11-18 08:04:00
3:53 AM,70.0,64.0,81,30.06,10.0,NE,13.8,23.0,N/A,,Clear,50,2011-11-18 08:53:00
4:53 AM,69.1,63.0,81,30.06,10.0,NE,8.1,18.4,N/A,,Clear,40,2011-11-18 09:53:00
5:53 AM,68.0,61.0,78,30.08,10.0,NE,16.1,-,N/A,,Mostly Cloudy,40,2011-11-18 10:53:00
6:53 AM,69.1,61.0,75,30.09,10.0,NE,11.5,-,N/A,,Partly Cloudy,40,2011-11-18 11:53:00
7:53 AM,70.0,61.0,73,30.11,10.0,NE,13.8,-,N/A,,Clear,50,2011-11-18 12:53:00
8:53 AM,73.0,63.0,71,30.12,10.0,ENE,16.1,-,N/A,,Clear,60,2011-11-18 13:53:00
9:53 AM,73.9,64.0,71,30.14,10.0,ENE,15.0,-,N/A,,Mostly Cloudy,70,2011-11-18 14:53:00
10:53 AM,75.0,66.0,73,30.13,10.0,NE,13.8,-,0.00,,Mostly Cloudy,50,2011-11-18 15:53:00
11:53 AM,77.0,66.9,71,30.12,9.0,NE,15.0,26.5,N/A,,Mostly Cloudy,50,2011-11-18 16:53:00
12:15 PM,77.0,66.2,69,30.11,9.0,ENE,18.4,28.8,N/A,,Mostly Cloudy,60,2011-11-18 17:15:00
12:53 PM,77.0,68.0,74,30.09,8.0,ENE,19.6,27.6,N/A,,Overcast,60,2011-11-18 17:53:00
1:53 PM,77.0,68.0,74,30.09,10.0,ENE,16.1,26.5,N/A,,Overcast,70,2011-11-18 18:53:00
2:53 PM,75.0,68.0,79,30.09,9.0,NE,13.8,21.9,N/A,,Overcast,40,2011-11-18 19:53:00
3:53 PM,73.0,66.9,81,30.10,8.0,ENE,15.0,24.2,N/A,,Overcast,60,2011-11-18 20:53:00
4:53 PM,71.1,68.0,90,30.11,5.0,ENE,16.1,-,N/A,,Overcast,60,2011-11-18 21:53:00
5:10 PM,71.6,68.0,88,30.11,7.0,ENE,18.4,24.2,N/A,,Overcast,60,2011-11-18 22:10:00
5:53 PM,72.0,66.9,84,30.11,9.0,NE,11.5,-,N/A,,Mostly Cloudy,50,2011-11-18 22:53:00
6:53 PM,71.6,66.2,83,30.13,7.0,NE,15.0,-,N/A,,Overcast,50,2011-11-18 23:53:00
7:53 PM,70.0,66.9,90,30.15,5.0,NE,11.5,-,N/A,,Overcast,50,2011-11-19 00:53:00
8:21 PM,69.8,68.0,94,30.16,3.0,NE,9.2,-,N/A,,Overcast,40,2011-11-19 01:21:00
8:53 PM,70.0,68.0,93,30.15,4.0,NE,10.4,-,0.00,,Overcast,50,2011-11-19 01:53:00
9:46 PM,71.6,68.0,88,30.16,8.0,ENE,10.4,-,N/A,,Overcast,60,2011-11-19 02:46:00
9:53 PM,71.1,66.9,87,30.16,9.0,ENE,10.4,-,N/A,,Overcast,60,2011-11-19 02:53:00
10:19 PM,71.6,66.2,83,30.16,9.0,ENE,12.7,-,N/A,,Overcast,60,2011-11-19 03:19:00
10:33 PM,71.6,66.2,83,30.16,9.0,ENE,13.8,-,N/A,,Mostly Cloudy,60,2011-11-19 03:33:00
10:53 PM,71.1,66.9,87,30.16,9.0,ENE,12.7,-,N/A,,Scattered Clouds,70,2011-11-19 03:53:00
11:06 PM,71.6,66.2,83,30.16,9.0,ENE,12.7,-,N/A,,Mostly Cloudy,60,2011-11-19 04:06:00
11:40 PM,71.6,66.2,83,30.15,7.0,ENE,11.5,-,N/A,,Overcast,60,2011-11-19 04:40:00
11:53 PM,71.1,66.9,87,30.14,9.0,ENE,12.7,-,N/A,,Mostly Cloudy,60,2011-11-19 04:53:00